Location: ??????
(38.1303°N, 24.0039°E)
Time: 08:11:59
(UTC+00:00)

AQUA - Pass Details

Date: 20 June 2021
Orbit: 701 x 704 km, 98.2° (Epoch: 24 July)

Event Time Altitude Azimuth Distance (km) Brightness Sun altitude
Rises 00:08:18 0° 15° (NNE) 3,099 8.5 -23.9°
Reaches altitude 10° 00:10:35 10° 17° (NNE) 2,176 7.4 -23.7°
Maximum altitude 00:15:21 71° 102° (ESE) 743 3.9 -23.3°
Enters shadow 00:16:10 57° 159° (SSE) 823 3.9 -23.2°
